| time (UTC) | temp F | wind direction | speed MPH | gust MPH | rain 1hr in | rain 24hr in | rain mn in | humidity % | barometer mb |
| 20260508204906 | 61 | 333 | 10.0 | 14.0 | 0.01 | 0.46 | 0.20 | 93 | 1005.9 |
| 20260508201904 | 60 | 337 | 9.0 | 12.0 | 0.00 | 0.46 | 0.19 | 94 | 1005.6 |
| 20260508200404 | 59 | 352 | 9.0 | 12.0 | 0.00 | 0.46 | 0.19 | 94 | 1005.6 |
| 20260508195905 | 58 | 348 | 8.0 | 12.0 | 0.00 | 0.46 | 0.19 | 94 | 1005.5 |
| 20260508195405 | 58 | 338 | 6.0 | 8.0 | 0.00 | 0.46 | 0.19 | 94 | 1005.6 |
| 20260508192406 | 58 | 339 | 7.0 | 10.0 | 0.00 | 0.46 | 0.19 | 94 | 1005.3 |
| 20260508191406 | 58 | 332 | 7.0 | 10.0 | 0.00 | 0.46 | 0.19 | 94 | 1005.3 |
| 20260508190906 | 58 | 334 | 8.0 | 10.0 | 0.00 | 0.46 | 0.19 | 94 | 1005.2 |
| 20260508190405 | 57 | 330 | 9.0 | 12.0 | 0.00 | 0.46 | 0.19 | 94 | 1005.1 |
| 20260508184909 | 57 | 337 | 6.0 | 9.0 | 0.00 | 0.46 | 0.19 | 93 | 1005.0 |
| 20260508184406 | 57 | 335 | 6.0 | 9.0 | 0.00 | 0.46 | 0.19 | 93 | 1005.0 |
| 20260508183905 | 58 | 329 | 7.0 | 9.0 | 0.00 | 0.46 | 0.19 | 93 | 1005.1 |
| 20260508181405 | 59 | 321 | 8.0 | 12.0 | 0.00 | 0.46 | 0.19 | 94 | 1005.1 |
| 20260508175905 | 58 | 338 | 6.0 | 9.0 | 0.00 | 0.46 | 0.19 | 94 | 1005.1 |
| 20260508175405 | 58 | 323 | 7.0 | 10.0 | 0.00 | 0.46 | 0.19 | 94 | 1005.1 |
| 20260508174906 | 58 | 328 | 9.0 | 12.0 | 0.00 | 0.46 | 0.19 | 94 | 1005.1 |
| 20260508170405 | 58 | 326 | 10.0 | 12.0 | 0.00 | 0.46 | 0.19 | 93 | 1005.0 |
| 20260508165405 | 59 | 332 | 12.0 | 15.0 | 0.00 | 0.46 | 0.19 | 93 | 1005.0 |
| 20260508164905 | 59 | 329 | 10.0 | 12.0 | 0.00 | 0.46 | 0.19 | 93 | 1005.0 |
| 20260508163906 | 59 | 346 | 10.0 | 12.0 | 0.00 | 0.46 | 0.19 | 93 | 1005.1 |
| 20260508163405 | 59 | 349 | 10.0 | 13.0 | 0.00 | 0.46 | 0.19 | 93 | 1005.2 |
| 20260508162406 | 60 | 355 | 5.0 | 10.0 | 0.00 | 0.46 | 0.19 | 93 | 1005.3 |
| 20260508161905 | 60 | 7 | 7.0 | 10.0 | 0.00 | 0.46 | 0.19 | 93 | 1005.5 |
| 20260508161406 | 60 | 8 | 7.0 | 12.0 | 0.00 | 0.46 | 0.19 | 93 | 1005.4 |
| 20260508160405 | 60 | 15 | 9.0 | 13.0 | 0.00 | 0.46 | 0.19 | 93 | 1005.5 |
| 20260508153905 | 59 | 14 | 5.0 | 8.0 | 0.00 | 0.46 | 0.19 | 93 | 1005.5 |
| 20260508153405 | 60 | 14 | 6.0 | 9.0 | 0.00 | 0.46 | 0.19 | 93 | 1005.7 |
| 20260508152905 | 60 | 12 | 5.0 | 7.0 | 0.00 | 0.46 | 0.19 | 93 | 1005.7 |
| 20260508152406 | 60 | 8 | 6.0 | 10.0 | 0.00 | 0.46 | 0.19 | 93 | 1005.8 |
| 20260508151406 | 60 | 338 | 6.0 | 12.0 | 0.00 | 0.46 | 0.19 | 93 | 1005.9 |
| 20260508145906 | 60 | 330 | 5.0 | 7.0 | 0.00 | 0.46 | 0.19 | 93 | 1005.8 |
| 20260508144406 | 60 | 327 | 4.0 | 5.0 | 0.03 | 0.46 | 0.19 | 93 | 1005.9 |
| 20260508143906 | 60 | 338 | 3.0 | 5.0 | 0.03 | 0.46 | 0.19 | 93 | 1005.9 |
| 20260508143406 | 60 | 343 | 2.0 | 3.0 | 0.04 | 0.46 | 0.19 | 92 | 1005.8 |
| 20260508135406 | 60 | 346 | 2.0 | 3.0 | 0.05 | 0.46 | 0.19 | 92 | 1006.2 |
| 20260508134905 | 60 | 346 | 2.0 | 7.0 | 0.03 | 0.44 | 0.17 | 91 | 1006.2 |
| 20260508134406 | 60 | 342 | 2.0 | 5.0 | 0.02 | 0.43 | 0.16 | 91 | 1006.1 |
| 20260508133905 | 60 | 327 | 3.0 | 6.0 | 0.02 | 0.43 | 0.16 | 91 | 1006.1 |
| 20260508131906 | 60 | 302 | 1.0 | 2.0 | 0.02 | 0.42 | 0.15 | 90 | 1006.6 |
| 20260508130906 | 61 | 293 | 3.0 | 7.0 | 0.13 | 0.41 | 0.14 | 89 | 1006.5 |
| 20260508125406 | 61 | 288 | 10.0 | 14.0 | 0.16 | 0.41 | 0.14 | 89 | 1006.5 |
| 20260508123906 | 61 | 287 | 13.0 | 20.0 | 0.28 | 0.41 | 0.14 | 89 | 1006.4 |
| 20260508122906 | 61 | 278 | 14.0 | 22.0 | 0.02 | 0.41 | 0.14 | 91 | 1006.2 |
| 20260508122406 | 62 | 285 | 17.0 | 28.0 | 0.01 | 0.40 | 0.13 | 92 | 1006.2 |
| 20260508121405 | 64 | 290 | 26.0 | 33.0 | 0.26 | 0.39 | 0.12 | 92 | 1006.2 |
| 20260508120906 | 65 | 338 | 15.0 | 21.0 | 0.16 | 0.28 | 0.02 | 92 | 1005.2 |
| 20260508114905 | 65 | 10 | 10.0 | 14.0 | 0.14 | 0.24 | 0.24 | 92 | 1005.6 |
| 20260508113406 | 65 | 359 | 14.0 | 20.0 | 0.03 | 0.13 | 0.13 | 91 | 1006.0 |
| 20260508112906 | 65 | 0 | 16.0 | 22.0 | 0.03 | 0.13 | 0.13 | 91 | 1005.9 |
| 20260508112406 | 65 | 3 | 14.0 | 21.0 | 0.03 | 0.13 | 0.13 | 91 | 1006.0 |
| 20260508111906 | 65 | 5 | 18.0 | 26.0 | 0.03 | 0.13 | 0.13 | 90 | 1006.1 |
| 20260508110906 | 65 | 2 | 16.0 | 24.0 | 0.03 | 0.13 | 0.13 | 91 | 1006.3 |
| 20260508110405 | 65 | 1 | 18.0 | 22.0 | 0.04 | 0.13 | 0.13 | 91 | 1006.3 |
| 20260508104906 | 65 | 356 | 17.0 | 25.0 | 0.03 | 0.09 | 0.09 | 90 | 1006.8 |
| 20260508104406 | 65 | 358 | 18.0 | 24.0 | 0.04 | 0.09 | 0.09 | 91 | 1006.8 |
| 20260508103906 | 65 | 7 | 17.0 | 26.0 | 0.05 | 0.09 | 0.09 | 91 | 1006.8 |
| 20260508103406 | 65 | 14 | 16.0 | 22.0 | 0.06 | 0.09 | 0.09 | 91 | 1006.9 |
| 20260508101905 | 65 | 359 | 12.0 | 17.0 | 0.09 | 0.09 | 0.09 | 91 | 1007.4 |
| 20260508095905 | 65 | 10 | 16.0 | 24.0 | 0.06 | 0.07 | 0.07 | 90 | 1007.5 |
| 20260508094906 | 65 | 21 | 14.0 | 20.0 | 0.06 | 0.06 | 0.06 | 90 | 1007.6 |
| 20260508094405 | 64 | 18 | 14.0 | 21.0 | 0.06 | 0.06 | 0.06 | 90 | 1007.7 |
| 20260508093405 | 65 | 12 | 13.0 | 20.0 | 0.03 | 0.03 | 0.03 | 89 | 1008.0 |
| 20260508092406 | 65 | 15 | 14.0 | 22.0 | 0.01 | 0.01 | 0.01 | 88 | 1008.1 |
| 20260508091405 | 65 | 6 | 16.0 | 20.0 | 0.01 | 0.01 | 0.01 | 87 | 1008.2 |
| 20260508090405 | 65 | 356 | 14.0 | 21.0 | 0.01 | 0.01 | 0.01 | 87 | 1008.4 |
| 20260508085905 | 65 | 3 | 16.0 | 20.0 | 0.01 | 0.01 | 0.01 | 86 | 1008.3 |
| 20260508084904 | 65 | 9 | 16.0 | 23.0 | 0.00 | 0.00 | 0.00 | 86 | 1008.3 |
| 20260508083905 | 65 | 352 | 18.0 | 24.0 | 0.00 | 0.00 | 0.00 | 86 | 1008.4 |
| 20260508082906 | 65 | 8 | 17.0 | 25.0 | 0.00 | 0.00 | 0.00 | 86 | 1008.2 |
| 20260508082405 | 65 | 3 | 15.0 | 23.0 | 0.00 | 0.00 | 0.00 | 87 | 1008.3 |
| 20260508081406 | 65 | 0 | 14.0 | 23.0 | 0.00 | 0.00 | 0.00 | 87 | 1008.6 |
| 20260508080406 | 65 | 0 | 16.0 | 22.0 | 0.00 | 0.00 | 0.00 | 86 | 1008.7 |
| 20260508074905 | 66 | 4 | 16.0 | 26.0 | 0.00 | 0.00 | 0.00 | 84 | 1008.6 |
| 20260508074405 | 66 | 10 | 14.0 | 21.0 | 0.00 | 0.00 | 0.00 | 84 | 1008.7 |
| 20260508073906 | 66 | 357 | 15.0 | 23.0 | 0.00 | 0.00 | 0.00 | 84 | 1008.8 |
| 20260508070404 | 65 | 8 | 14.0 | 20.0 | 0.00 | 0.00 | 0.00 | 86 | 1008.5 |
| 20260508065905 | 65 | 19 | 16.0 | 21.0 | 0.00 | 0.00 | 0.00 | 86 | 1008.5 |
| 20260508065405 | 65 | 22 | 18.0 | 24.0 | 0.00 | 0.00 | 0.00 | 87 | 1008.4 |
| 20260508064905 | 65 | 19 | 20.0 | 25.0 | 0.00 | 0.00 | 0.00 | 86 | 1008.7 |
| 20260508064404 | 65 | 17 | 20.0 | 28.0 | 0.00 | 0.00 | 0.00 | 87 | 1008.8 |
| 20260508063906 | 65 | 25 | 16.0 | 22.0 | 0.00 | 0.00 | 0.00 | 87 | 1008.8 |
| 20260508061405 | 65 | 7 | 16.0 | 26.0 | 0.00 | 0.00 | 0.00 | 87 | 1009.4 |
| 20260508060904 | 65 | 5 | 17.0 | 26.0 | 0.00 | 0.00 | 0.00 | 88 | 1009.5 |
| 20260508060406 | 65 | 1 | 17.0 | 23.0 | 0.00 | 0.00 | 0.00 | 88 | 1009.8 |
| 20260508055905 | 65 | 7 | 16.0 | 22.0 | 0.00 | 0.00 | 0.00 | 88 | 1010.1 |
| 20260508055405 | 65 | 6 | 16.0 | 22.0 | 0.00 | 0.00 | 0.00 | 88 | 1010.2 |
| 20260508053905 | 65 | 356 | 16.0 | 21.0 | 0.00 | 0.00 | 0.00 | 88 | 1010.4 |
| 20260508052906 | 65 | 8 | 16.0 | 29.0 | 0.00 | 0.00 | 0.00 | 88 | 1010.5 |
| 20260508051905 | 65 | 0 | 17.0 | 25.0 | 0.00 | 0.00 | 0.00 | 87 | 1010.7 |
| 20260508051405 | 65 | 356 | 18.0 | 26.0 | 0.00 | 0.00 | 0.00 | 86 | 1010.9 |
| 20260508050905 | 66 | 1 | 16.0 | 22.0 | 0.00 | 0.00 | 0.00 | 84 | 1010.9 |
| 20260508050405 | 66 | 354 | 18.0 | 24.0 | 0.00 | 0.00 | 0.00 | 84 | 1010.9 |
| 20260508045905 | 66 | 0 | 14.0 | 21.0 | 0.00 | 0.00 | 0.00 | 84 | 1010.9 |
| 20260508043906 | 66 | 9 | 14.0 | 20.0 | 0.00 | 0.00 | 0.00 | 83 | 1011.2 |
| 20260508042906 | 66 | 5 | 15.0 | 20.0 | 0.00 | 0.00 | 0.00 | 82 | 1011.4 |
| 20260508041405 | 67 | 14 | 17.0 | 23.0 | 0.00 | 0.00 | 0.00 | 81 | 1011.3 |
| 20260508040406 | 67 | 356 | 17.0 | 26.0 | 0.00 | 0.00 | 0.00 | 81 | 1011.6 |
| 20260508035906 | 67 | 2 | 18.0 | 29.0 | 0.00 | 0.00 | 0.00 | 80 | 1011.5 |
| 20260508035404 | 67 | 353 | 18.0 | 24.0 | 0.00 | 0.00 | 0.00 | 80 | 1011.5 |
| 20260508031905 | 67 | 13 | 17.0 | 26.0 | 0.00 | 0.00 | 0.00 | 80 | 1011.5 |
| 20260508031405 | 67 | 13 | 17.0 | 25.0 | 0.00 | 0.00 | 0.00 | 80 | 1011.6 |
| 20260508030905 | 67 | 16 | 14.0 | 20.0 | 0.00 | 0.00 | 0.00 | 79 | 1011.6 |
| 20260508025905 | 67 | 7 | 11.0 | 20.0 | 0.00 | 0.00 | 0.00 | 79 | 1011.8 |
| 20260508025404 | 67 | 18 | 10.0 | 15.0 | 0.00 | 0.00 | 0.00 | 80 | 1011.8 |
| 20260508022905 | 66 | 35 | 14.0 | 20.0 | 0.00 | 0.00 | 0.00 | 80 | 1011.7 |
| 20260508020906 | 66 | 34 | 11.0 | 14.0 | 0.00 | 0.00 | 0.00 | 80 | 1012.4 |
| 20260508015905 | 66 | 15 | 10.0 | 14.0 | 0.00 | 0.00 | 0.00 | 79 | 1012.9 |
| 20260508014905 | 67 | 15 | 8.0 | 13.0 | 0.00 | 0.00 | 0.00 | 79 | 1012.9 |
| 20260508014405 | 66 | 16 | 10.0 | 13.0 | 0.00 | 0.00 | 0.00 | 80 | 1012.8 |
| 20260508013405 | 66 | 29 | 10.0 | 13.0 | 0.00 | 0.00 | 0.00 | 80 | 1012.5 |
| 20260508011905 | 66 | 17 | 7.0 | 13.0 | 0.00 | 0.00 | 0.00 | 80 | 1013.2 |
| 20260508010905 | 67 | 22 | 13.0 | 17.0 | 0.00 | 0.00 | 0.00 | 80 | 1013.5 |
| 20260508005405 | 67 | 3 | 13.0 | 18.0 | 0.00 | 0.00 | 0.00 | 79 | 1014.1 |
| 20260508004906 | 68 | 11 | 13.0 | 17.0 | 0.00 | 0.00 | 0.00 | 79 | 1014.2 |
| 20260508004405 | 68 | 9 | 13.0 | 16.0 | 0.00 | 0.00 | 0.00 | 78 | 1014.4 |
| 20260508002405 | 68 | 0 | 12.0 | 15.0 | 0.00 | 0.00 | 0.00 | 77 | 1014.4 |
| 20260508001905 | 68 | 8 | 11.0 | 20.0 | 0.00 | 0.00 | 0.00 | 79 | 1014.4 |
| 20260508000905 | 67 | 5 | 15.0 | 23.0 | 0.00 | 0.00 | 0.00 | 78 | 1014.8 |
| 20260508000405 | 67 | 13 | 15.0 | 20.0 | 0.00 | 0.00 | 0.00 | 79 | 1015.1 |
| 20260507235405 | 67 | 14 | 13.0 | 21.0 | 0.00 | 0.00 | 0.00 | 81 | 1015.0 |
| 20260507234904 | 67 | 31 | 7.0 | 10.0 | 0.00 | 0.00 | 0.00 | 83 | 1015.1 |
| 20260507233405 | 67 | 41 | 6.0 | 12.0 | 0.00 | 0.00 | 0.00 | 83 | 1015.5 |
| 20260507232904 | 66 | 42 | 9.0 | 13.0 | 0.00 | 0.00 | 0.00 | 83 | 1015.5 |
| 20260507232404 | 66 | 48 | 7.0 | 12.0 | 0.00 | 0.00 | 0.00 | 83 | 1015.5 |
| 20260507231905 | 66 | 41 | 10.0 | 12.0 | 0.00 | 0.00 | 0.00 | 83 | 1015.6 |
| 20260507224904 | 67 | 25 | 13.0 | 18.0 | 0.00 | 0.00 | 0.00 | 80 | 1015.9 |
| 20260507223904 | 67 | 30 | 10.0 | 21.0 | 0.00 | 0.00 | 0.00 | 83 | 1015.9 |
| 20260507223405 | 67 | 22 | 12.0 | 16.0 | 0.00 | 0.00 | 0.00 | 86 | 1015.9 |
| 20260507221405 | 65 | 30 | 6.0 | 7.0 | 0.00 | 0.00 | 0.00 | 91 | 1016.3 |
| 20260507220905 | 65 | 39 | 4.0 | 7.0 | 0.00 | 0.00 | 0.00 | 93 | 1016.1 |
| 20260507214905 | 61 | 38 | 3.0 | 5.0 | 0.00 | 0.00 | 0.00 | 94 | 1016.4 |
| 20260507213904 | 60 | 29 | 3.0 | 5.0 | 0.00 | 0.00 | 0.00 | 95 | 1016.6 |
| 20260507210405 | 58 | 329 | 0.0 | 1.0 | 0.00 | 0.00 | 0.00 | 95 | 1016.6 |
| 20260507205404 | 57 | 328 | 0.0 | 1.0 | 0.00 | 0.00 | 0.00 | 95 | 1016.8 |